THORAD DELTA 1 DEB, 8164

Orbit data source: Space-Track

THORAD DELTA 1 DEB, 8164 is space debris in SSO originally from a launch on Fri, 15 Nov 1974 UTC launched from the Air Force Western Test Range (AFWTR). Debris objects in space refer to the collection of defunct objects orbiting the Earth. Examples of debris include non-operational satellites, rocket bodies, and fragments generated from explosions, collisions, or faulty payload assembly.

Loading next visibility...
Identifier
8164, 1974-089AE
Orbit
SSO
Last TLE update
16 hours ago
Origin
Manufacturer
Unknown
Mission
Spacecraft
Bus & Motor
Unknown
Mass
Unknown
Launch date (UTC)
1974-11-15 (51 years ago)
Launch vehicle
Unknown
Launch site
Air Force Western Test Range (AFWTR)
Object type
Payload
Rocket body
Debris
Shape & HBR
Unknown
Radar Cross Section
Medium (>0.1 m² and <1 m²)

Expand to show TLE details & history

TLE from 16 hours ago
0 THORAD DELTA 1 DEB
1 08164U 74089AE  25186.33572429 -.00000018  00000-0  19838-3 0  9996
2 08164 101.5912 322.7729 0120266 275.2839  97.7400 12.28967395272005
Epoch: 2025-07-05T08:03Z
TLE epoch observation values (Epoch: 2025-07-05T08:03:26.578Z)
Latitude
14.06126°
Longitude
-84.59352°
Altitude
1,569.528 km
Speed
7.078 km/s
True Right ascension
21h 19m 22s
True Declination
13° 59' 19"
Sunlit
Object was in full shadow at epoch
Visualization orbit readout
Latitude
62.41065°
Longitude
-104.03891°
Altitude
1,647.121 km
Speed
7.017 km/s
Apparent Right ascension
22h 15m 14s
Apparent Declination
21° 46' 26"
Sunlit
Object is in daylight
Visualization observer readout
Local Sidereal Time
11:54:15
Azimuth
25.217° NE
Elevation
-24.13°
Doppler factor
1
Orbital elements
Apogee altitude
1,646.65 km
Perigee altitude
1,455.922 km
Semi-major axis
7,929.423 km
Eccentricity
0.01203
Inclination
101.5912°
RAAN
322.7729°
Arg. of periapsis
275.2839°
True anomaly
Unknown
Mean anomaly
97.74°
Eccentric anomaly
Unknown
Mean motion
3.07384 °/min
Orbital period
117.12 mins
BSTAR
0.00019838
Loading maneuver chart data...
Loading SW <> Apogee altitude chart data...
Loading historical data...
Loading historical data...
Loading historical data...
Loading historical data...
Loading historical data...
Loading historical data...
Loading historical data...

THORAD DELTA 1 DEB Visibility forecast

Observer location: undefined°, undefined°

Span
Click to sort rows by Start time (UTC) header in descending order
Start Az.
Max El. time (UTC)
Max El. Az.
Max El.
End time (UTC)
End Az.
12 mins2025-07-06 00:12:48.642Z352.026° N2025-07-06 00:18:48.642Z309.707° NW19.655°2025-07-06 00:24:48.642Z267.381° W
14 mins2025-07-06 07:34:48.642Z113.031° SE2025-07-06 07:40:48.642Z59.359° ENE30.659°2025-07-06 07:48:48.642Z357.411° N
16 mins2025-07-06 09:27:48.642Z182.219° SSW2025-07-06 09:35:48.642Z267.715° W40.002°2025-07-06 09:43:48.642Z334.361° NNW
4 mins2025-07-06 19:54:48.642Z78.575° E2025-07-06 19:55:48.642Z85.378° E11.676°2025-07-06 19:58:48.642Z105.449° ESE
16 mins2025-07-06 21:44:48.642Z23.78° NE2025-07-06 21:52:48.642Z118.887° SE42.838°2025-07-06 22:00:48.642Z186.794° SSW
13 mins2025-07-06 23:40:48.642Z353.043° N2025-07-06 23:46:48.642Z302.624° NW27.203°2025-07-06 23:53:48.642Z248.965° W
|